Geneva, Switzerland

10:22 AM CET on January 20, 2018 (GMT +0100)
Cointrin

Weather History for LSGG - November, 2012

Change the Weather History Date:

Thursday, November 8, 2012

  Actual Average Record
Temperature  
Mean Temperature 40 °F -  
Max Temperature 50 °F 44 °F 64 °F (2013)
Min Temperature 30 °F 34 °F 26 °F (1998)
Degree Days  
Heating Degree Days 25    
Moisture  
Dew Point 36 °F    
Average Humidity 82    
Maximum Humidity 100    
Minimum Humidity 55    
Precipitation  
Precipitation 0.00 in 0.11 in - ()
Sea Level Pressure  
Sea Level Pressure 30.25 in    
Wind  
Wind Speed 2 mph ()    
Max Wind Speed 6 mph    
Max Gust Speed -    
Visibility 7.1 miles    
Events Fog , Rain    
Averages and records for this station are not official NWS values.
T = Trace of Precipitation, MM = Missing Value Source: Averaged Metar Reports

Daily Weather History Graph

Daily Weather History Graph

Search for Another Location

Airport or City:

Trip Planner

Search our weather history database for the weather conditions in past years. The results will help you decide how hot, cold, wet, or windy it might be!

Date:

Astronomy

Nov. 08, 2012 Rise Set
Actual Time 7:26 AM CET 5:10 PM CET
Civil Twilight 6:54 AM CET 5:42 PM CET
Nautical Twilight 6:19 AM CET 6:18 PM CET
Astronomical Twilight 5:43 AM CET 6:53 PM CET
Moon 12:45 AM CET (11/8) 2:01 PM CET (11/8)
Length of Visible Light 10h 47m
Length of Day
9h 43m
Waning Crescent, 35% of the Moon is Illuminated
Nov 8
Waning Crescent
Nov 13
New
Nov 20
First Quarter
Nov 28
Full
Dec 6
Last Quarter

Hourly Weather History & Observations

Time (CET) Temp. Windchill Dew Point Humidity Pressure Visibility Wind Dir Wind Speed Gust Speed Precip Events Conditions
12:00 AM 35 °F - 34 °F 93% 30.44 in - East 1.2 mph - -  
12:20 AM 33.8 °F - 33.8 °F 100% 30.36 in - NW 1.2 mph - N/A   Clear
12:50 AM 33.8 °F - 33.8 °F 100% 30.36 in - Variable 1.2 mph - N/A   Clear
1:00 AM 34 °F - 33 °F 95% 30.44 in 16 mi SSW 3.5 mph - -  
1:20 AM 33.8 °F - 32.0 °F 93% 30.36 in - Variable 2.3 mph - N/A   Clear
1:50 AM 33.8 °F - 33.8 °F 100% 30.36 in - Variable 2.3 mph - N/A   Clear
2:00 AM 33 °F - 32 °F 96% 30.43 in - West 2.3 mph - -  
2:20 AM 32.0 °F - 32.0 °F 100% 30.33 in - Calm Calm - N/A   Clear
2:50 AM 32.0 °F - 32.0 °F 100% 30.33 in - SSW 1.2 mph - N/A   Clear
3:00 AM 32 °F - 30 °F 91% 30.41 in - WSW 1.2 mph - -  
3:20 AM 32.0 °F - 32.0 °F 100% 30.33 in - Variable 1.2 mph - N/A   Clear
3:50 AM 32.0 °F - 32.0 °F 100% 30.30 in - West 1.2 mph - N/A   Clear
4:20 AM 32.0 °F - 32.0 °F 100% 30.30 in 6.2 mi West 1.2 mph - N/A Fog Shallow Fog
4:50 AM 32.0 °F - 32.0 °F 100% 30.30 in - SW 2.3 mph - N/A   Clear
5:00 AM 31 °F - 30 °F 94% 30.38 in - WNW 2.3 mph - -  
5:20 AM 32.0 °F - 30.2 °F 93% 30.30 in 5.6 mi WNW 1.2 mph - N/A   Unknown
5:50 AM 32.0 °F - 30.2 °F 93% 30.27 in 5.6 mi Calm Calm - N/A   Unknown
6:00 AM 31 °F - 30 °F 93% 30.37 in - WNW 2.3 mph - -  
6:20 AM 30.2 °F - 30.2 °F 100% 30.27 in - WNW 1.2 mph - N/A   Clear
6:50 AM 30.2 °F - 30.2 °F 100% 30.27 in 5.0 mi Variable 1.2 mph - N/A Fog Fog
7:00 AM 32 °F - 30 °F 90% 30.35 in 7 mi West 2.3 mph - -   Mist
7:20 AM 32.0 °F - 30.2 °F 93% 30.27 in 5.0 mi WSW 1.2 mph - N/A   Unknown
7:50 AM 32.0 °F - 32.0 °F 100% 30.27 in 5.6 mi West 2.3 mph - N/A   Unknown
8:00 AM 33 °F - 31 °F 91% 30.35 in - WNW 2.3 mph - -  
8:20 AM 32.0 °F - 32.0 °F 100% 30.27 in - Calm Calm - N/A   Clear
8:50 AM 33.8 °F - 33.8 °F 100% 30.30 in - NW 1.2 mph - N/A   Clear
9:00 AM 36 °F - 34 °F 90% 30.35 in - SW 1.2 mph - -  
9:20 AM 39.2 °F - 37.4 °F 93% 30.30 in - Variable 2.3 mph - N/A   Clear
9:50 AM 41.0 °F - 37.4 °F 87% 30.27 in - Variable 1.2 mph - N/A   Clear
10:20 AM 41.0 °F - 37.4 °F 87% 30.27 in - Variable 1.2 mph - N/A   Clear
10:50 AM 42.8 °F - 37.4 °F 81% 30.27 in - Variable 1.2 mph - N/A   Clear
11:00 AM 42 °F - 37 °F 77% 30.31 in - WNW 1.2 mph - -  
11:20 AM 44.6 °F - 37.4 °F 76% 30.24 in - Variable 1.2 mph - N/A   Clear
11:50 AM 44.6 °F - 37.4 °F 76% 30.24 in - Variable 2.3 mph - N/A   Clear
12:00 PM 45 °F - 38 °F 68% 30.27 in - NW 1.2 mph - -  
12:20 PM 48.2 °F - 39.2 °F 71% 30.24 in - Variable 1.2 mph - N/A   Clear
12:50 PM 48.2 °F - 39.2 °F 71% 30.21 in - Variable 2.3 mph - N/A   Clear
1:00 PM 47 °F - 36 °F 56% 30.22 in 12 mi East 1.2 mph - -   Mostly Cloudy
1:20 PM 50.0 °F - 37.4 °F 62% 30.18 in - Variable 1.2 mph - N/A   Clear
1:50 PM 50.0 °F - 39.2 °F 66% 30.18 in - Variable 3.5 mph - N/A   Clear
2:00 PM 49 °F - 38 °F 57% 30.20 in - WSW 3.5 mph - -  
2:20 PM 50.0 °F - 39.2 °F 66% 30.18 in - Variable 3.5 mph - N/A   Clear
2:50 PM 50.0 °F - 39.2 °F 66% 30.15 in - West 2.3 mph - N/A   Clear
3:00 PM 49 °F - 38 °F 57% 30.18 in - West 3.5 mph - -  
3:20 PM 50.0 °F - 39.2 °F 66% 30.15 in - Variable 2.3 mph - N/A   Clear
3:50 PM 50.0 °F - 39.2 °F 66% 30.15 in - Variable 2.3 mph - N/A   Clear
4:20 PM 50.0 °F - 39.2 °F 66% 30.15 in - Variable 1.2 mph - N/A   Clear
4:50 PM 48.2 °F - 41.0 °F 76% 30.15 in - Variable 1.2 mph - N/A   Clear
5:00 PM 47 °F - 40 °F 69% 30.18 in - Calm Calm - -  
5:20 PM 46.4 °F - 41.0 °F 81% 30.15 in - Variable 1.2 mph - N/A   Clear
5:50 PM 48.2 °F - 41.0 °F 76% 30.15 in - Variable 1.2 mph - N/A   Clear
6:00 PM 46 °F - 41 °F 76% 30.19 in - WNW 2.3 mph - -  
6:20 PM 48.2 °F - 39.2 °F 71% 30.18 in - Variable 1.2 mph - N/A   Clear
6:50 PM 48.2 °F - 41.0 °F 76% 30.15 in 6.2 mi Variable 1.2 mph - N/A   Mostly Cloudy
7:00 PM 47 °F - 40 °F 67% 30.19 in 12 mi NW 3.5 mph - -   Mostly Cloudy
7:20 PM 48.2 °F - 41.0 °F 76% 30.15 in 6.2 mi Variable 2.3 mph - N/A   Mostly Cloudy
7:50 PM 46.4 °F 43.5 °F 41.0 °F 81% 30.15 in 6.2 mi SSW 5.8 mph - N/A   Mostly Cloudy
8:00 PM 49 °F - 38 °F 55% 30.18 in - SSW 5.8 mph - -  
8:20 PM 50.0 °F - 39.2 °F 66% 30.15 in 6.2 mi WSW 4.6 mph - N/A   Mostly Cloudy
8:50 PM 48.2 °F - 39.2 °F 71% 30.15 in 6.2 mi North 2.3 mph - N/A   Mostly Cloudy
9:00 PM 47 °F - 39 °F 65% 30.19 in - NW 3.5 mph - -  
9:20 PM 46.4 °F 45.2 °F 41.0 °F 81% 30.15 in 6.2 mi NW 3.5 mph - N/A   Mostly Cloudy
9:50 PM 46.4 °F 45.2 °F 41.0 °F 81% 30.15 in 6.2 mi SE 3.5 mph - N/A   Mostly Cloudy
10:20 PM 48.2 °F - 41.0 °F 76% 30.15 in 6.2 mi South 3.5 mph - N/A Rain Light Rain Showers
10:50 PM 46.4 °F - 41.0 °F 81% 30.15 in 6.2 mi NW 1.2 mph - N/A   Mostly Cloudy
11:00 PM 47 °F - 41 °F 71% 30.19 in - Calm Calm - -  
11:20 PM 46.4 °F - 41.0 °F 81% 30.15 in 6.2 mi North 2.3 mph - N/A   Mostly Cloudy
11:50 PM 46.4 °F - 41.0 °F 81% 30.15 in 6.2 mi NE 1.2 mph - N/A   Mostly Cloudy